| time (UTC) | temp F | wind direction | speed MPH | gust MPH | rain 1hr in | rain 24hr in | rain mn in | humidity % | barometer mb |
| 20260903175813 | 91 | 141 | 5.0 | 8.0 | 0.00 | 0.00 | 0.00 | 66 | 1022.8 |
| 20260903175313 | 90 | 164 | 4.0 | 5.0 | 0.00 | 0.00 | 0.00 | 69 | 1023.0 |
| 20260903174807 | 89 | 118 | 5.0 | 9.0 | 0.00 | 0.00 | 0.00 | 65 | 1023.1 |
| 20260903174302 | 91 | 154 | 7.0 | 9.0 | 0.00 | 0.00 | 0.00 | 65 | 1023.1 |
| 20260903173757 | 92 | 181 | 3.0 | 11.0 | 0.00 | 0.00 | 0.00 | 61 | 1023.2 |
| 20260903173253 | 91 | 74 | 3.0 | 5.0 | 0.00 | 0.00 | 0.00 | 65 | 1023.2 |
| 20260903172748 | 91 | 134 | 7.0 | 13.0 | 0.00 | 0.00 | 0.00 | 64 | 1023.1 |
| 20260903172243 | 90 | 139 | 1.0 | 8.0 | 0.00 | 0.00 | 0.00 | 67 | 1023.3 |
| 20260903171738 | 89 | 168 | 2.0 | 8.0 | 0.00 | 0.00 | 0.00 | 68 | 1023.4 |
| 20260903171234 | 88 | 124 | 0.0 | 9.0 | 0.00 | 0.00 | 0.00 | 70 | 1023.3 |
| 20260903170732 | 89 | 134 | 2.0 | 7.0 | 0.00 | 0.00 | 0.00 | 70 | 1023.4 |
| 20260903170228 | 89 | 126 | 3.0 | 7.0 | 0.00 | 0.00 | 0.00 | 68 | 1023.5 |
| 20260903165726 | 88 | 131 | 3.0 | 5.0 | 0.00 | 0.00 | 0.00 | 70 | 1023.6 |
| 20260903165221 | 91 | 196 | 3.0 | 5.0 | 0.00 | 0.00 | 0.00 | 69 | 1023.9 |
| 20260903164715 | 90 | 126 | 2.0 | 5.0 | 0.00 | 0.00 | 0.00 | 69 | 1023.5 |
| 20260903164212 | 90 | 71 | 3.0 | 5.0 | 0.00 | 0.00 | 0.00 | 69 | 1023.7 |
| 20260903163711 | 90 | 77 | 1.0 | 3.0 | 0.00 | 0.00 | 0.00 | 71 | 1024.0 |
| 20260903163208 | 89 | 27 | 3.0 | 3.0 | 0.00 | 0.00 | 0.00 | 72 | 1023.6 |
| 20260903162703 | 90 | 108 | 2.0 | 5.0 | 0.00 | 0.00 | 0.00 | 72 | 1023.7 |
| 20260903162159 | 89 | 51 | 2.0 | 5.0 | 0.00 | 0.00 | 0.00 | 74 | 1023.8 |
| 20260903161654 | 89 | 96 | 1.0 | 1.0 | 0.00 | 0.00 | 0.00 | 73 | 1024.0 |
| 20260903161149 | 90 | 101 | 5.0 | 6.0 | 0.00 | 0.00 | 0.00 | 73 | 1024.0 |
| 20260903160645 | 89 | 107 | 1.0 | 3.0 | 0.00 | 0.00 | 0.00 | 72 | 1024.0 |
| 20260903160139 | 89 | 163 | 0.0 | 2.0 | 0.00 | 0.00 | 0.00 | 76 | 1024.0 |
| 20260903155638 | 88 | 111 | 1.0 | 3.0 | 0.00 | 0.00 | 0.00 | 76 | 1024.1 |
| 20260903155133 | 88 | 199 | 1.0 | 2.0 | 0.00 | 0.00 | 0.00 | 77 | 1024.2 |
| 20260903154629 | 88 | 102 | 2.0 | 5.0 | 0.00 | 0.00 | 0.00 | 78 | 1024.1 |
| 20260903154125 | 87 | 83 | 3.0 | 3.0 | 0.00 | 0.00 | 0.00 | 77 | 1024.2 |
| 20260903153620 | 87 | 88 | 1.0 | 3.0 | 0.00 | 0.00 | 0.00 | 77 | 1024.2 |
| 20260903153116 | 86 | 147 | 3.0 | 7.0 | 0.00 | 0.00 | 0.00 | 80 | 1024.0 |
| 20260903152612 | 86 | 132 | 1.0 | 3.0 | 0.00 | 0.00 | 0.00 | 77 | 1024.1 |
| 20260903152108 | 86 | 165 | 1.0 | 3.0 | 0.00 | 0.00 | 0.00 | 80 | 1024.3 |
| 20260903151607 | 86 | 93 | 2.0 | 5.0 | 0.00 | 0.00 | 0.00 | 79 | 1024.2 |
| 20260903151103 | 87 | 81 | 1.0 | 3.0 | 0.00 | 0.00 | 0.00 | 79 | 1024.2 |
| 20260903150602 | 86 | 81 | 2.0 | 3.0 | 0.00 | 0.00 | 0.00 | 81 | 1024.2 |
| 20260903150058 | 86 | 122 | 1.0 | 2.0 | 0.00 | 0.00 | 0.00 | 82 | 1024.1 |
| 20260903145557 | 85 | 91 | 1.0 | 3.0 | 0.00 | 0.00 | 0.00 | 83 | 1024.3 |
| 20260903145052 | 84 | 98 | 2.0 | 2.0 | 0.00 | 0.00 | 0.00 | 85 | 1024.0 |
| 20260903144551 | 84 | 105 | 2.0 | 2.0 | 0.00 | 0.00 | 0.00 | 86 | 1024.0 |
| 20260903144048 | 84 | 106 | 1.0 | 3.0 | 0.00 | 0.00 | 0.00 | 87 | 1024.2 |
| 20260903143544 | 83 | 30 | 3.0 | 3.0 | 0.00 | 0.00 | 0.00 | 89 | 1024.2 |
| 20260903143039 | 83 | 111 | 2.0 | 3.0 | 0.00 | 0.00 | 0.00 | 89 | 1024.0 |
| 20260903142534 | 82 | 130 | 0.0 | 3.0 | 0.00 | 0.00 | 0.00 | 91 | 1024.0 |
| 20260903142031 | 81 | 120 | 0.0 | 1.0 | 0.00 | 0.00 | 0.00 | 93 | 1023.9 |
| 20260903141526 | 81 | 113 | 0.0 | 1.0 | 0.00 | 0.00 | 0.00 | 93 | 1024.2 |
| 20260903141021 | 80 | 108 | 1.0 | 2.0 | 0.00 | 0.00 | 0.00 | 94 | 1024.0 |
| 20260903140517 | 80 | 86 | 1.0 | 2.0 | 0.00 | 0.00 | 0.00 | 95 | 1024.1 |
| 20260903140012 | 80 | 78 | 2.0 | 2.0 | 0.00 | 0.00 | 0.00 | 95 | 1024.3 |
| 20260903135508 | 80 | 106 | 1.0 | 2.0 | 0.00 | 0.00 | 0.00 | 96 | 1024.1 |
| 20260903135002 | 80 | 124 | 2.0 | 2.0 | 0.00 | 0.00 | 0.00 | 96 | 1024.2 |
| 20260903134501 | 79 | 152 | 0.0 | 1.0 | 0.00 | 0.00 | 0.00 | 97 | 1024.3 |
| 20260903133958 | 79 | 116 | 1.0 | 1.0 | 0.00 | 0.00 | 0.00 | 98 | 1024.2 |
| 20260903133455 | 78 | 111 | 1.0 | 3.0 | 0.00 | 0.00 | 0.00 | 98 | 1024.2 |
| 20260903132950 | 78 | 72 | 2.0 | 2.0 | 0.00 | 0.00 | 0.00 | 99 | 1024.4 |
| 20260903132445 | 78 | 114 | 1.0 | 2.0 | 0.00 | 0.00 | 0.00 | 99 | 1024.2 |
| 20260903131940 | 78 | 105 | 1.0 | 2.0 | 0.00 | 0.00 | 0.00 | 99 | 1024.3 |
| 20260903131435 | 77 | 112 | 1.0 | 1.0 | 0.00 | 0.00 | 0.00 | 99 | 1024.3 |
| 20260903130934 | 77 | 117 | 0.0 | 2.0 | 0.00 | 0.00 | 0.00 | 99 | 1024.4 |
| 20260903130429 | 77 | 88 | 1.0 | 2.0 | 0.00 | 0.00 | 0.00 | 99 | 1024.4 |
| 20260903125928 | 76 | 118 | 1.0 | 1.0 | 0.00 | 0.00 | 0.00 | 99 | 1024.4 |
| 20260903125427 | 76 | 100 | 0.0 | 1.0 | 0.00 | 0.00 | 0.00 | 99 | 1024.4 |
| 20260903124927 | 76 | 101 | 0.0 | 1.0 | 0.00 | 0.00 | 0.00 | 99 | 1024.3 |
| 20260903124422 | 75 | 101 | 0.0 | 0.0 | 0.00 | 0.00 | 0.00 | 99 | 1024.5 |
| 20260903123921 | 75 | 101 | 0.0 | 0.0 | 0.00 | 0.00 | 0.00 | 99 | 1024.3 |
| 20260903123416 | 75 | 100 | 1.0 | 1.0 | 0.00 | 0.00 | 0.00 | 99 | 1024.4 |
| 20260903122915 | 74 | 104 | 0.0 | 0.0 | 0.00 | 0.00 | 0.00 | 99 | 1024.5 |
| 20260903122409 | 74 | 107 | 0.0 | 0.0 | 0.00 | 0.00 | 0.00 | 99 | 1024.5 |
| 20260903121908 | 74 | 107 | 0.0 | 0.0 | 0.00 | 0.00 | 0.00 | 99 | 1024.5 |
| 20260903121403 | 74 | 107 | 0.0 | 0.0 | 0.00 | 0.00 | 0.00 | 99 | 1024.5 |
| 20260903120900 | 74 | 107 | 0.0 | 0.0 | 0.00 | 0.00 | 0.00 | 99 | 1024.4 |
| 20260903120358 | 73 | 107 | 0.0 | 0.0 | 0.00 | 0.00 | 0.00 | 99 | 1024.7 |
| 20260903115857 | 73 | 107 | 0.0 | 0.0 | 0.00 | 0.00 | 0.00 | 99 | 1024.2 |
| 20260903115351 | 73 | 107 | 0.0 | 0.0 | 0.00 | 0.00 | 0.00 | 99 | 1024.1 |
| 20260903114846 | 73 | 107 | 0.0 | 0.0 | 0.00 | 0.00 | 0.00 | 99 | 1024.3 |
| 20260903114342 | 72 | 107 | 0.0 | 0.0 | 0.00 | 0.00 | 0.00 | 99 | 1024.0 |
| 20260903113837 | 72 | 107 | 0.0 | 0.0 | 0.00 | 0.00 | 0.00 | 99 | 1024.1 |
| 20260903113332 | 72 | 107 | 0.0 | 0.0 | 0.00 | 0.00 | 0.00 | 99 | 1023.9 |
| 20260903112829 | 72 | 107 | 0.0 | 0.0 | 0.00 | 0.00 | 0.00 | 99 | 1023.8 |
| 20260903112324 | 72 | 107 | 0.0 | 0.0 | 0.00 | 0.00 | 0.00 | 99 | 1023.8 |
| 20260903111823 | 72 | 107 | 0.0 | 0.0 | 0.00 | 0.00 | 0.00 | 99 | 1023.6 |
| 20260903111323 | 72 | 107 | 0.0 | 0.0 | 0.00 | 0.00 | 0.00 | 99 | 1023.5 |
| 20260903110819 | 72 | 115 | 0.0 | 0.0 | 0.00 | 0.00 | 0.00 | 99 | 1023.4 |
| 20260903110314 | 72 | 115 | 0.0 | 0.0 | 0.00 | 0.00 | 0.00 | 99 | 1023.4 |
| 20260903105809 | 72 | 115 | 0.0 | 0.0 | 0.00 | 0.00 | 0.00 | 99 | 1023.3 |
| 20260903105306 | 72 | 115 | 0.0 | 1.0 | 0.00 | 0.00 | 0.00 | 99 | 1023.3 |
| 20260903104758 | 72 | 115 | 0.0 | 0.0 | 0.00 | 0.00 | 0.00 | 99 | 1023.4 |
| 20260903104253 | 72 | 115 | 0.0 | 0.0 | 0.00 | 0.00 | 0.00 | 99 | 1023.3 |
| 20260903103749 | 72 | 115 | 0.0 | 1.0 | 0.00 | 0.00 | 0.00 | 99 | 1023.4 |
| 20260903103245 | 72 | 115 | 0.0 | 0.0 | 0.00 | 0.00 | 0.00 | 99 | 1023.3 |
| 20260903102741 | 72 | 115 | 1.0 | 1.0 | 0.00 | 0.00 | 0.00 | 99 | 1023.3 |
| 20260903102240 | 71 | 116 | 0.0 | 0.0 | 0.00 | 0.00 | 0.00 | 99 | 1023.2 |
| 20260903101738 | 71 | 116 | 0.0 | 0.0 | 0.00 | 0.00 | 0.00 | 99 | 1023.2 |
| 20260903101234 | 71 | 116 | 0.0 | 0.0 | 0.00 | 0.00 | 0.00 | 99 | 1023.3 |
| 20260903100729 | 71 | 115 | 1.0 | 1.0 | 0.00 | 0.00 | 0.00 | 99 | 1023.1 |
| 20260903100224 | 72 | 114 | 0.0 | 1.0 | 0.00 | 0.00 | 0.00 | 99 | 1023.1 |
| 20260903095721 | 72 | 147 | 1.0 | 2.0 | 0.00 | 0.00 | 0.00 | 99 | 1023.4 |
| 20260903095216 | 72 | 147 | 0.0 | 1.0 | 0.00 | 0.00 | 0.00 | 99 | 1023.2 |
| 20260903094711 | 72 | 147 | 1.0 | 1.0 | 0.00 | 0.00 | 0.00 | 99 | 1023.2 |
| 20260903094206 | 71 | 147 | 0.0 | 0.0 | 0.00 | 0.00 | 0.00 | 99 | 1023.1 |
| 20260903093701 | 71 | 147 | 0.0 | 0.0 | 0.00 | 0.00 | 0.00 | 99 | 1023.1 |
| 20260903093156 | 71 | 147 | 0.0 | 0.0 | 0.00 | 0.00 | 0.00 | 99 | 1023.1 |
| 20260903092651 | 71 | 147 | 0.0 | 0.0 | 0.00 | 0.00 | 0.00 | 99 | 1023.1 |
| 20260903092145 | 71 | 147 | 0.0 | 0.0 | 0.00 | 0.00 | 0.00 | 99 | 1022.9 |
| 20260903091644 | 71 | 147 | 0.0 | 0.0 | 0.00 | 0.00 | 0.00 | 99 | 1022.9 |
| 20260903091138 | 71 | 147 | 0.0 | 0.0 | 0.00 | 0.00 | 0.00 | 99 | 1022.8 |
| 20260903090634 | 71 | 147 | 0.0 | 0.0 | 0.00 | 0.00 | 0.00 | 99 | 1022.9 |
| 20260903090133 | 71 | 147 | 0.0 | 0.0 | 0.00 | 0.00 | 0.00 | 99 | 1022.8 |
| 20260903085632 | 71 | 147 | 0.0 | 0.0 | 0.00 | 0.00 | 0.00 | 99 | 1022.9 |
| 20260903085128 | 71 | 147 | 0.0 | 0.0 | 0.00 | 0.00 | 0.00 | 99 | 1022.9 |
| 20260903084625 | 71 | 147 | 0.0 | 0.0 | 0.00 | 0.00 | 0.00 | 99 | 1022.9 |
| 20260903084120 | 72 | 147 | 0.0 | 1.0 | 0.00 | 0.00 | 0.00 | 99 | 1022.8 |
| 20260903083615 | 71 | 147 | 0.0 | 0.0 | 0.00 | 0.00 | 0.00 | 99 | 1023.0 |
| 20260903083110 | 71 | 147 | 0.0 | 0.0 | 0.00 | 0.00 | 0.00 | 99 | 1022.6 |
| 20260903082604 | 72 | 147 | 0.0 | 0.0 | 0.00 | 0.00 | 0.00 | 99 | 1022.6 |
| 20260903082100 | 72 | 147 | 0.0 | 0.0 | 0.00 | 0.00 | 0.00 | 99 | 1022.8 |
| 20260903081555 | 72 | 147 | 0.0 | 0.0 | 0.00 | 0.00 | 0.00 | 99 | 1022.4 |
| 20260903081051 | 72 | 147 | 0.0 | 0.0 | 0.00 | 0.00 | 0.00 | 99 | 1022.5 |
| 20260903080547 | 72 | 147 | 0.0 | 0.0 | 0.00 | 0.00 | 0.00 | 99 | 1022.5 |
| 20260903080043 | 72 | 147 | 0.0 | 0.0 | 0.00 | 0.00 | 0.00 | 99 | 1022.4 |
| 20260903075538 | 72 | 147 | 0.0 | 1.0 | 0.00 | 0.00 | 0.00 | 99 | 1022.5 |
| 20260903075033 | 72 | 147 | 1.0 | 1.0 | 0.00 | 0.00 | 0.00 | 99 | 1022.4 |
| 20260903074532 | 72 | 147 | 0.0 | 1.0 | 0.00 | 0.00 | 0.00 | 99 | 1022.5 |
| 20260903074027 | 72 | 147 | 0.0 | 0.0 | 0.00 | 0.00 | 0.00 | 99 | 1022.5 |
| 20260903073522 | 72 | 147 | 0.0 | 0.0 | 0.00 | 0.00 | 0.00 | 99 | 1022.4 |
| 20260903073019 | 72 | 147 | 0.0 | 0.0 | 0.00 | 0.00 | 0.00 | 99 | 1022.6 |
| 20260903072514 | 72 | 147 | 1.0 | 1.0 | 0.00 | 0.00 | 0.00 | 99 | 1022.5 |
| 20260903072010 | 72 | 147 | 0.0 | 0.0 | 0.00 | 0.00 | 0.00 | 99 | 1022.6 |
| 20260903071506 | 72 | 147 | 0.0 | 0.0 | 0.00 | 0.00 | 0.00 | 99 | 1022.7 |
| 20260903071001 | 73 | 147 | 0.0 | 1.0 | 0.00 | 0.00 | 0.00 | 98 | 1022.7 |
| 20260903070455 | 73 | 147 | 0.0 | 0.0 | 0.00 | 0.00 | 0.00 | 98 | 1022.7 |
| 20260903065950 | 73 | 147 | 0.0 | 0.0 | 0.00 | 0.00 | 0.00 | 98 | 1022.5 |
| 20260903065445 | 73 | 147 | 0.0 | 0.0 | 0.00 | 0.00 | 0.00 | 98 | 1022.5 |
| 20260903064944 | 73 | 147 | 0.0 | 0.0 | 0.00 | 0.00 | 0.00 | 98 | 1022.8 |
| 20260903064439 | 73 | 147 | 0.0 | 0.0 | 0.00 | 0.00 | 0.00 | 98 | 1022.7 |
| 20260903063935 | 73 | 147 | 0.0 | 0.0 | 0.00 | 0.00 | 0.00 | 98 | 1022.7 |
| 20260903063430 | 73 | 147 | 0.0 | 0.0 | 0.00 | 0.00 | 0.00 | 98 | 1022.9 |
| 20260903062925 | 73 | 147 | 0.0 | 0.0 | 0.00 | 0.00 | 0.00 | 98 | 1023.0 |
| 20260903062420 | 73 | 147 | 0.0 | 0.0 | 0.00 | 0.00 | 0.00 | 98 | 1022.8 |
| 20260903061916 | 73 | 147 | 0.0 | 0.0 | 0.00 | 0.00 | 0.00 | 97 | 1023.0 |
| 20260903061415 | 73 | 147 | 0.0 | 0.0 | 0.00 | 0.00 | 0.00 | 97 | 1022.9 |
| 20260903060911 | 74 | 147 | 0.0 | 0.0 | 0.00 | 0.00 | 0.00 | 97 | 1023.2 |
| 20260903060411 | 74 | 147 | 0.0 | 0.0 | 0.00 | 0.00 | 0.00 | 97 | 1023.1 |
| 20260903055908 | 74 | 147 | 0.0 | 0.0 | 0.00 | 0.00 | 0.00 | 97 | 1023.3 |
| 20260903055407 | 74 | 147 | 0.0 | 1.0 | 0.00 | 0.00 | 0.00 | 97 | 1023.1 |
| 20260903054901 | 74 | 147 | 1.0 | 1.0 | 0.00 | 0.00 | 0.00 | 97 | 1023.1 |
| 20260903054356 | 74 | 147 | 0.0 | 1.0 | 0.00 | 0.00 | 0.00 | 96 | 1023.3 |
| 20260903053852 | 74 | 147 | 0.0 | 0.0 | 0.00 | 0.00 | 0.00 | 96 | 1023.2 |
| 20260903053347 | 74 | 147 | 0.0 | 0.0 | 0.00 | 0.00 | 0.00 | 96 | 1023.3 |
| 20260903052843 | 74 | 147 | 0.0 | 0.0 | 0.00 | 0.00 | 0.00 | 96 | 1023.1 |
| 20260903052338 | 75 | 147 | 0.0 | 0.0 | 0.00 | 0.00 | 0.00 | 96 | 1023.3 |
| 20260903051834 | 74 | 147 | 0.0 | 0.0 | 0.00 | 0.00 | 0.00 | 95 | 1023.4 |
| 20260903051330 | 74 | 147 | 0.0 | 0.0 | 0.00 | 0.00 | 0.00 | 95 | 1023.3 |
| 20260903050825 | 74 | 147 | 0.0 | 0.0 | 0.00 | 0.00 | 0.00 | 95 | 1023.3 |
| 20260903050324 | 74 | 147 | 0.0 | 0.0 | 0.00 | 0.00 | 0.00 | 95 | 1023.5 |
| 20260903045819 | 75 | 147 | 0.0 | 0.0 | 0.00 | 0.00 | 0.00 | 95 | 1023.6 |
| 20260903045315 | 75 | 147 | 0.0 | 0.0 | 0.00 | 0.00 | 0.00 | 94 | 1023.6 |
| 20260903044811 | 75 | 147 | 0.0 | 0.0 | 0.00 | 0.00 | 0.00 | 94 | 1023.6 |
| 20260903044306 | 75 | 147 | 0.0 | 0.0 | 0.00 | 0.00 | 0.00 | 93 | 1023.7 |
| 20260903043803 | 75 | 147 | 0.0 | 0.0 | 0.00 | 0.00 | 0.00 | 93 | 1023.5 |
| 20260903043302 | 75 | 147 | 0.0 | 0.0 | 0.00 | 0.00 | 0.00 | 92 | 1023.6 |
| 20260903042801 | 75 | 147 | 0.0 | 0.0 | 0.00 | 0.00 | 0.00 | 92 | 1023.6 |
| 20260903042257 | 75 | 147 | 0.0 | 0.0 | 0.00 | 0.00 | 0.00 | 92 | 1023.5 |
| 20260903041753 | 75 | 147 | 0.0 | 0.0 | 0.00 | 0.00 | 0.00 | 92 | 1023.8 |
| 20260903041249 | 75 | 147 | 0.0 | 0.0 | 0.00 | 0.00 | 0.00 | 91 | 1023.7 |
| 20260903040743 | 75 | 147 | 0.0 | 0.0 | 0.00 | 0.00 | 0.00 | 91 | 1023.7 |
| 20260903040242 | 76 | 147 | 0.0 | 0.0 | 0.00 | 0.00 | 0.00 | 91 | 1023.6 |
| 20260903035738 | 76 | 147 | 0.0 | 0.0 | 0.00 | 0.00 | 0.00 | 91 | 1023.7 |
| 20260903035234 | 76 | 147 | 0.0 | 0.0 | 0.00 | 0.00 | 0.00 | 91 | 1023.6 |
| 20260903034729 | 76 | 147 | 0.0 | 0.0 | 0.00 | 0.00 | 0.00 | 90 | 1023.7 |
| 20260903034225 | 76 | 147 | 0.0 | 0.0 | 0.00 | 0.00 | 0.00 | 90 | 1023.6 |
| 20260903033719 | 76 | 147 | 0.0 | 0.0 | 0.00 | 0.00 | 0.00 | 89 | 1023.8 |
| 20260903033214 | 77 | 147 | 0.0 | 0.0 | 0.00 | 0.00 | 0.00 | 89 | 1023.8 |
| 20260903032709 | 77 | 147 | 0.0 | 0.0 | 0.00 | 0.00 | 0.00 | 89 | 1024.0 |
| 20260903032204 | 77 | 147 | 0.0 | 0.0 | 0.00 | 0.00 | 0.00 | 88 | 1023.8 |
| 20260903031700 | 77 | 148 | 0.0 | 0.0 | 0.00 | 0.00 | 0.00 | 88 | 1024.1 |
| 20260903031154 | 77 | 147 | 0.0 | 0.0 | 0.00 | 0.00 | 0.00 | 88 | 1023.8 |
| 20260903030650 | 77 | 147 | 0.0 | 0.0 | 0.00 | 0.00 | 0.00 | 87 | 1023.7 |
| 20260903030145 | 77 | 148 | 0.0 | 0.0 | 0.00 | 0.00 | 0.00 | 87 | 1023.7 |
| 20260903025640 | 77 | 147 | 0.0 | 1.0 | 0.00 | 0.00 | 0.00 | 88 | 1023.7 |
| 20260903025136 | 77 | 147 | 0.0 | 0.0 | 0.00 | 0.00 | 0.00 | 88 | 1023.8 |
| 20260903024630 | 77 | 147 | 0.0 | 0.0 | 0.00 | 0.00 | 0.00 | 89 | 1023.8 |
| 20260903024124 | 77 | 147 | 1.0 | 1.0 | 0.00 | 0.00 | 0.00 | 89 | 1023.9 |
| 20260903023620 | 77 | 149 | 1.0 | 1.0 | 0.00 | 0.00 | 0.00 | 89 | 1023.9 |
| 20260903023120 | 77 | 146 | 1.0 | 1.0 | 0.00 | 0.00 | 0.00 | 89 | 1023.8 |
| 20260903022615 | 77 | 145 | 0.0 | 1.0 | 0.00 | 0.00 | 0.00 | 89 | 1023.9 |
| 20260903022114 | 77 | 145 | 0.0 | 0.0 | 0.00 | 0.00 | 0.00 | 89 | 1023.8 |
| 20260903021608 | 78 | 145 | 0.0 | 0.0 | 0.00 | 0.00 | 0.00 | 89 | 1023.7 |
| 20260903021103 | 78 | 145 | 0.0 | 0.0 | 0.00 | 0.00 | 0.00 | 89 | 1023.5 |
| 20260903020558 | 78 | 145 | 0.0 | 0.0 | 0.00 | 0.00 | 0.00 | 88 | 1023.6 |
| 20260903020058 | 78 | 145 | 0.0 | 0.0 | 0.00 | 0.00 | 0.00 | 87 | 1023.6 |
| 20260903015554 | 78 | 145 | 0.0 | 0.0 | 0.00 | 0.00 | 0.00 | 87 | 1023.6 |
| 20260903015049 | 78 | 145 | 0.0 | 1.0 | 0.00 | 0.00 | 0.00 | 87 | 1023.5 |
| 20260903014549 | 78 | 145 | 0.0 | 1.0 | 0.00 | 0.00 | 0.00 | 87 | 1023.4 |
| 20260903014038 | 78 | 142 | 0.0 | 0.0 | 0.00 | 0.00 | 0.00 | 87 | 1023.5 |
| 20260903013537 | 79 | 142 | 0.0 | 0.0 | 0.00 | 0.00 | 0.00 | 86 | 1023.5 |
| 20260903013032 | 79 | 142 | 0.0 | 0.0 | 0.00 | 0.00 | 0.00 | 85 | 1023.3 |
| 20260903012531 | 79 | 142 | 0.0 | 0.0 | 0.00 | 0.00 | 0.00 | 85 | 1023.2 |
| 20260903012031 | 79 | 142 | 0.0 | 0.0 | 0.00 | 0.00 | 0.00 | 85 | 1023.2 |
| 20260903011530 | 79 | 142 | 0.0 | 0.0 | 0.00 | 0.00 | 0.00 | 85 | 1023.1 |
| 20260903011026 | 79 | 142 | 0.0 | 0.0 | 0.00 | 0.00 | 0.00 | 85 | 1023.1 |
| 20260903010521 | 79 | 142 | 0.0 | 0.0 | 0.00 | 0.00 | 0.00 | 85 | 1023.3 |
| 20260903010020 | 80 | 142 | 0.0 | 0.0 | 0.00 | 0.00 | 0.00 | 85 | 1023.0 |
| 20260903005519 | 80 | 142 | 0.0 | 0.0 | 0.00 | 0.00 | 0.00 | 83 | 1023.0 |
| 20260903005016 | 80 | 142 | 0.0 | 0.0 | 0.00 | 0.00 | 0.00 | 82 | 1022.9 |
| 20260903004510 | 80 | 142 | 0.0 | 0.0 | 0.00 | 0.00 | 0.00 | 82 | 1022.7 |
| 20260903004006 | 81 | 142 | 0.0 | 0.0 | 0.00 | 0.00 | 0.00 | 82 | 1022.7 |
| 20260903003501 | 81 | 142 | 0.0 | 0.0 | 0.00 | 0.00 | 0.00 | 80 | 1022.7 |
| 20260903002956 | 82 | 142 | 0.0 | 0.0 | 0.00 | 0.00 | 0.00 | 82 | 1022.7 |
| 20260903002455 | 82 | 142 | 0.0 | 0.0 | 0.00 | 0.00 | 0.00 | 80 | 1023.0 |
| 20260903001954 | 82 | 142 | 0.0 | 0.0 | 0.00 | 0.00 | 0.00 | 79 | 1022.6 |
| 20260903001450 | 83 | 142 | 0.0 | 0.0 | 0.00 | 0.00 | 0.00 | 78 | 1022.7 |
| 20260903000944 | 83 | 142 | 0.0 | 0.0 | 0.00 | 0.00 | 0.00 | 77 | 1022.7 |
| 20260903000439 | 84 | 142 | 0.0 | 1.0 | 0.00 | 0.00 | 0.00 | 75 | 1022.5 |
| 20260902235937 | 85 | 137 | 1.0 | 2.0 | 0.00 | 0.00 | 0.00 | 74 | 1022.6 |
| 20260902235432 | 85 | 148 | 1.0 | 1.0 | 0.00 | 0.00 | 0.00 | 72 | 1022.6 |
| 20260902234926 | 86 | 145 | 1.0 | 2.0 | 0.00 | 0.00 | 0.00 | 72 | 1022.5 |
| 20260902234421 | 86 | 150 | 1.0 | 2.0 | 0.00 | 0.00 | 0.00 | 72 | 1022.4 |
| 20260902233920 | 86 | 178 | 1.0 | 2.0 | 0.00 | 0.00 | 0.00 | 72 | 1022.3 |
| 20260902233414 | 86 | 152 | 0.0 | 2.0 | 0.00 | 0.00 | 0.00 | 74 | 1022.3 |
| 20260902232914 | 86 | 159 | 3.0 | 3.0 | 0.00 | 0.00 | 0.00 | 72 | 1022.3 |
| 20260902232404 | 86 | 147 | 0.0 | 2.0 | 0.00 | 0.00 | 0.00 | 72 | 1022.3 |
| 20260902231903 | 87 | 155 | 1.0 | 1.0 | 0.00 | 0.00 | 0.00 | 74 | 1022.6 |
| 20260902231358 | 88 | 150 | 0.0 | 1.0 | 0.00 | 0.00 | 0.00 | 72 | 1022.4 |
| 20260902230853 | 88 | 151 | 1.0 | 1.0 | 0.00 | 0.00 | 0.00 | 70 | 1022.3 |
| 20260902230352 | 89 | 145 | 0.0 | 1.0 | 0.00 | 0.00 | 0.00 | 70 | 1022.4 |
| 20260902225846 | 89 | 139 | 0.0 | 1.0 | 0.00 | 0.00 | 0.00 | 71 | 1022.4 |
| 20260902225342 | 89 | 141 | 0.0 | 1.0 | 0.00 | 0.00 | 0.00 | 66 | 1022.1 |
| 20260902224839 | 89 | 160 | 2.0 | 2.0 | 0.00 | 0.00 | 0.00 | 65 | 1022.3 |
| 20260902224335 | 89 | 140 | 1.0 | 3.0 | 0.00 | 0.00 | 0.00 | 64 | 1022.3 |
| 20260902223831 | 90 | 133 | 3.0 | 5.0 | 0.00 | 0.00 | 0.00 | 64 | 1022.3 |
| 20260902223325 | 91 | 164 | 5.0 | 7.0 | 0.00 | 0.00 | 0.00 | 62 | 1022.3 |
| 20260902222819 | 92 | 167 | 2.0 | 3.0 | 0.00 | 0.00 | 0.00 | 61 | 1022.4 |
| 20260902222312 | 92 | 144 | 2.0 | 3.0 | 0.00 | 0.00 | 0.00 | 60 | 1022.2 |
| 20260902221806 | 92 | 117 | 3.0 | 3.0 | 0.00 | 0.00 | 0.00 | 59 | 1022.2 |
| 20260902221306 | 92 | 95 | 1.0 | 3.0 | 0.00 | 0.00 | 0.00 | 60 | 1022.3 |
| 20260902220801 | 92 | 125 | 4.0 | 6.0 | 0.00 | 0.00 | 0.00 | 60 | 1022.3 |
| 20260902220301 | 92 | 159 | 2.0 | 5.0 | 0.00 | 0.00 | 0.00 | 61 | 1022.2 |
| 20260902215756 | 92 | 141 | 6.0 | 7.0 | 0.00 | 0.00 | 0.00 | 60 | 1022.2 |
| 20260902215252 | 92 | 139 | 1.0 | 2.0 | 0.00 | 0.00 | 0.00 | 62 | 1022.3 |
| 20260902214748 | 92 | 137 | 2.0 | 5.0 | 0.00 | 0.00 | 0.00 | 65 | 1022.2 |
| 20260902214246 | 92 | 163 | 1.0 | 3.0 | 0.00 | 0.00 | 0.00 | 63 | 1022.3 |
| 20260902213742 | 92 | 150 | 2.0 | 5.0 | 0.00 | 0.00 | 0.00 | 62 | 1022.6 |
| 20260902213242 | 92 | 105 | 1.0 | 5.0 | 0.00 | 0.00 | 0.00 | 61 | 1022.5 |
| 20260902212741 | 93 | 144 | 4.0 | 7.0 | 0.00 | 0.00 | 0.00 | 62 | 1022.4 |
| 20260902212238 | 95 | 133 | 2.0 | 2.0 | 0.00 | 0.00 | 0.00 | 58 | 1022.5 |
| 20260902211734 | 94 | 109 | 0.0 | 2.0 | 0.00 | 0.00 | 0.00 | 60 | 1022.6 |
| 20260902211229 | 94 | 79 | 1.0 | 2.0 | 0.00 | 0.00 | 0.00 | 62 | 1022.7 |
| 20260902210724 | 92 | 141 | 0.0 | 1.0 | 0.00 | 0.00 | 0.00 | 64 | 1022.6 |
| 20260902210219 | 90 | 114 | 0.0 | 1.0 | 0.00 | 0.00 | 0.00 | 67 | 1022.5 |
| 20260902205717 | 91 | 124 | 1.0 | 1.0 | 0.00 | 0.00 | 0.00 | 67 | 1022.5 |
| 20260902205212 | 91 | 135 | 0.0 | 1.0 | 0.00 | 0.00 | 0.00 | 63 | 1022.4 |
| 20260902204708 | 92 | 136 | 1.0 | 3.0 | 0.00 | 0.00 | 0.00 | 63 | 1022.5 |
| 20260902204203 | 94 | 137 | 2.0 | 3.0 | 0.00 | 0.00 | 0.00 | 60 | 1022.7 |
| 20260902203658 | 95 | 85 | 1.0 | 2.0 | 0.00 | 0.00 | 0.00 | 61 | 1022.5 |
| 20260902203158 | 93 | 105 | 0.0 | 3.0 | 0.00 | 0.00 | 0.00 | 63 | 1022.7 |
| 20260902202647 | 95 | 93 | 3.0 | 5.0 | 0.00 | 0.00 | 0.00 | 62 | 1022.6 |
| 20260902202144 | 95 | 154 | 1.0 | 1.0 | 0.00 | 0.00 | 0.00 | 61 | 1022.6 |
| 20260902201639 | 93 | 97 | 1.0 | 3.0 | 0.00 | 0.00 | 0.00 | 66 | 1022.8 |
| 20260902201133 | 91 | 106 | 1.0 | 2.0 | 0.00 | 0.00 | 0.00 | 68 | 1023.0 |
| 20260902200627 | 91 | 167 | 2.0 | 3.0 | 0.00 | 0.00 | 0.00 | 67 | 1022.8 |
| 20260902200124 | 91 | 169 | 2.0 | 5.0 | 0.00 | 0.00 | 0.00 | 66 | 1022.9 |
| 20260902195613 | 91 | 95 | 1.0 | 5.0 | 0.00 | 0.00 | 0.00 | 67 | 1023.0 |
| 20260902195112 | 91 | 94 | 1.0 | 2.0 | 0.00 | 0.00 | 0.00 | 70 | 1022.9 |
| 20260902194606 | 92 | 90 | 1.0 | 1.0 | 0.00 | 0.00 | 0.00 | 65 | 1023.0 |
| 20260902194101 | 93 | 94 | 1.0 | 2.0 | 0.00 | 0.00 | 0.00 | 67 | 1023.1 |
| 20260902193558 | 93 | 100 | 0.0 | 2.0 | 0.00 | 0.00 | 0.00 | 65 | 1023.2 |
| 20260902193056 | 93 | 108 | 0.0 | 1.0 | 0.00 | 0.00 | 0.00 | 64 | 1023.2 |
| 20260902192555 | 92 | 95 | 1.0 | 2.0 | 0.00 | 0.00 | 0.00 | 66 | 1023.5 |
| 20260902192053 | 91 | 102 | 1.0 | 2.0 | 0.00 | 0.00 | 0.00 | 66 | 1023.4 |
| 20260902191544 | 92 | 74 | 2.0 | 3.0 | 0.00 | 0.00 | 0.00 | 66 | 1023.5 |
| 20260902191038 | 93 | 47 | 2.0 | 2.0 | 0.00 | 0.00 | 0.00 | 63 | 1023.4 |
| 20260902190534 | 93 | 146 | 1.0 | 5.0 | 0.00 | 0.00 | 0.00 | 64 | 1023.5 |
| 20260902190029 | 93 | 146 | 3.0 | 3.0 | 0.00 | 0.00 | 0.00 | 63 | 1023.8 |
| 20260902185525 | 93 | 100 | 1.0 | 2.0 | 0.00 | 0.00 | 0.00 | 66 | 1023.8 |
| 20260902185021 | 92 | 77 | 1.0 | 2.0 | 0.00 | 0.00 | 0.00 | 66 | 1023.7 |
| 20260902184521 | 91 | 84 | 1.0 | 1.0 | 0.00 | 0.00 | 0.00 | 68 | 1023.8 |
| 20260902184016 | 91 | 132 | 1.0 | 2.0 | 0.00 | 0.00 | 0.00 | 67 | 1023.6 |
| 20260902183512 | 93 | 107 | 1.0 | 1.0 | 0.00 | 0.00 | 0.00 | 67 | 1023.8 |
| 20260902183009 | 92 | 41 | 2.0 | 3.0 | 0.00 | 0.00 | 0.00 | 69 | 1023.7 |
| 20260902182504 | 92 | 88 | 1.0 | 2.0 | 0.00 | 0.00 | 0.00 | 66 | 1023.6 |
| 20260902182000 | 93 | 170 | 1.0 | 2.0 | 0.00 | 0.00 | 0.00 | 65 | 1024.0 |
| 20260902181455 | 92 | 107 | 3.0 | 5.0 | 0.00 | 0.00 | 0.00 | 62 | 1024.2 |
| 20260902180950 | 94 | 101 | 1.0 | 2.0 | 0.00 | 0.00 | 0.00 | 64 | 1024.0 |
| 20260902180445 | 93 | 293 | 2.0 | 2.0 | 0.00 | 0.00 | 0.00 | 65 | 1024.0 |